When you browse on this site, cookies collect data to enhance your experience and personalize the content and advertising you see.
Visit our Privacy Policy to learn more. By continuing to use the site, you agree to this use of cookies and data.
  • In Schweiz
  • Länderverzeichnis
  • Für 7 Tage
  • Wassertemperatur
  • Wetterkarte
  • Widgets
  • user-avatar
    Anmelden

    Stündliche Wetter De-Mojn

    Heute, 6 Dezember, Freitag

    Zeit Temperatur Niederschläge Wind Luftdruck Luftfeuchtigkeit
    00:00 -2°C° 0 mm 7 m/S 742 mmHg 82%
    01:00 -2°C° 0 mm 7 m/S 743 mmHg 80%
    02:00 -2°C° 0 mm 7 m/S 743 mmHg 78%
    03:00 -2°C° 0 mm 7 m/S 744 mmHg 76%
    04:00 -3°C° 0 mm 7 m/S 745 mmHg 77%
    05:00 -3°C° 0 mm 6 m/S 745 mmHg 78%
    06:00 -4°C° 0 mm 5 m/S 746 mmHg 79%
    07:00 -4°C° 0 mm 5 m/S 746 mmHg 77%
    08:00 -4°C° 0 mm 5 m/S 747 mmHg 75%
    09:00 -4°C° 0 mm 5 m/S 747 mmHg 73%
    10:00 -2°C° 0 mm 4 m/S 748 mmHg 66%
    11:00 0°C° 0 mm 3 m/S 748 mmHg 60%
    12:00 +1°C° 0 mm 3 m/S 749 mmHg 54%
    13:00 +2°C° 0 mm 2 m/S 748 mmHg 51%
    14:00 +2°C° 0 mm 2 m/S 748 mmHg 48%
    15:00 +2°C° 0 mm 2 m/S 747 mmHg 46%
    16:00 +2°C° 0 mm 1 m/S 747 mmHg 50%
    17:00 +1°C° 0 mm 1 m/S 748 mmHg 54%
    18:00 -1°C° 0 mm 0 m/S 748 mmHg 58%
    19:00 0°C° 0 mm 1 m/S 748 mmHg 59%
    20:00 0°C° 0 mm 1 m/S 747 mmHg 60%
    21:00 -2°C° 0 mm 2 m/S 747 mmHg 61%
    22:00 -2°C° 0 mm 2 m/S 747 mmHg 64%
    23:00 -2°C° 0 mm 3 m/S 747 mmHg 67%

    Morgen, 7 Dezember, Samstag

    Zeit Temperatur Niederschläge Wind Luftdruck Luftfeuchtigkeit
    00:00 -2°C° 0 mm 3 m/S 746 mmHg 70%
    01:00 -2°C° 0 mm 3 m/S 746 mmHg 70%
    02:00 -2°C° 0 mm 3 m/S 746 mmHg 70%
    03:00 -2°C° 0 mm 3 m/S 745 mmHg 70%
    04:00 -2°C° 0 mm 3 m/S 745 mmHg 70%
    05:00 -3°C° 0 mm 4 m/S 745 mmHg 71%
    06:00 -3°C° 0 mm 4 m/S 745 mmHg 71%
    07:00 -3°C° 0 mm 4 m/S 744 mmHg 69%
    08:00 -2°C° 0 mm 4 m/S 744 mmHg 68%
    09:00 -1°C° 0 mm 5 m/S 744 mmHg 66%
    10:00 +1°C° 0 mm 5 m/S 743 mmHg 61%
    11:00 +2°C° 0 mm 5 m/S 743 mmHg 57%
    12:00 +5°C° 0 mm 5 m/S 743 mmHg 52%
    13:00 +5°C° 0 mm 5 m/S 742 mmHg 53%
    14:00 +6°C° 0 mm 5 m/S 741 mmHg 54%
    15:00 +6°C° 0 mm 5 m/S 740 mmHg 55%
    16:00 +5°C° 0 mm 5 m/S 739 mmHg 59%
    17:00 +3°C° 0 mm 5 m/S 739 mmHg 64%
    18:00 +1°C° 0 mm 5 m/S 739 mmHg 69%
    19:00 +2°C° 0 mm 6 m/S 738 mmHg 70%
    20:00 +2°C° 0 mm 6 m/S 738 mmHg 71%
    21:00 +2°C° 0 mm 6 m/S 737 mmHg 72%
    22:00 +2°C° 0 mm 6 m/S 737 mmHg 74%
    23:00 +2°C° 0 mm 6 m/S 736 mmHg 76%

    übermorgen, 8 Dezember, Sonntag

    Zeit Temperatur Niederschläge Wind Luftdruck Luftfeuchtigkeit
    00:00 +2°C° 0 mm 7 m/S 736 mmHg 77%
    01:00 +3°C° 0 mm 6 m/S 735 mmHg 79%
    02:00 +3°C° 0 mm 6 m/S 735 mmHg 80%
    03:00 +3°C° 0 mm 6 m/S 734 mmHg 81%
    04:00 +2°C° 0 mm 6 m/S 734 mmHg 83%
    05:00 +2°C° 0 mm 5 m/S 734 mmHg 84%
    06:00 +2°C° 0 mm 5 m/S 734 mmHg 86%
    07:00 +3°C° 0 mm 4 m/S 734 mmHg 86%
    08:00 +4°C° 0 mm 4 m/S 734 mmHg 86%
    09:00 +4°C° 0 mm 4 m/S 734 mmHg 86%
    10:00 +5°C° 0 mm 4 m/S 734 mmHg 81%
    11:00 +6°C° 0 mm 4 m/S 734 mmHg 77%
    12:00 +7°C° 0 mm 4 m/S 734 mmHg 72%
    13:00 +9°C° 0 mm 3 m/S 733 mmHg 72%
    14:00 +9°C° 0 mm 2 m/S 733 mmHg 72%
    15:00 +9°C° 0 mm 2 m/S 732 mmHg 72%
    16:00 +10°C° 0 mm 1 m/S 732 mmHg 76%
    17:00 +9°C° 0 mm 1 m/S 732 mmHg 80%
    18:00 +8°C° 0 mm 1 m/S 732 mmHg 83%
    19:00 +8°C° 0 mm 1 m/S 732 mmHg 86%
    20:00 +8°C° 0 mm 1 m/S 732 mmHg 88%
    21:00 +7°C° 0 mm 2 m/S 732 mmHg 91%
    22:00 +6°C° 0 mm 2 m/S 732 mmHg 91%
    23:00 +6°C° 0 mm 2 m/S 731 mmHg 91%

    9 Dezember, Montag

    Zeit Temperatur Niederschläge Wind Luftdruck Luftfeuchtigkeit
    00:00 +5°C° 0 mm 3 m/S 731 mmHg 91%
    01:00 +4°C° 0 mm 3 m/S 731 mmHg 89%
    02:00 +3°C° 0 mm 3 m/S 730 mmHg 88%
    03:00 +3°C° 0 mm 4 m/S 730 mmHg 86%
    04:00 +1°C° 0 mm 4 m/S 730 mmHg 86%
    05:00 +1°C° 0 mm 5 m/S 730 mmHg 86%
    06:00 0°C° 0 mm 5 m/S 731 mmHg 85%
    07:00 -2°C° 0.2 mm 6 m/S 731 mmHg 87%
    08:00 -3°C° 0.2 mm 6 m/S 732 mmHg 89%
    09:00 -4°C° 0.2 mm 7 m/S 732 mmHg 92%
    10:00 -6°C° 0.7 mm 7 m/S 733 mmHg 88%
    11:00 -7°C° 0.7 mm 7 m/S 733 mmHg 84%
    12:00 -8°C° 0.7 mm 8 m/S 734 mmHg 80%
    13:00 -8°C° 0 mm 8 m/S 734 mmHg 77%
    14:00 -10°C° 0 mm 8 m/S 734 mmHg 75%
    15:00 -10°C° 0 mm 8 m/S 734 mmHg 72%
    16:00 -11°C° 0 mm 7 m/S 735 mmHg 73%
    17:00 -12°C° 0 mm 7 m/S 736 mmHg 74%
    18:00 -13°C° 0 mm 7 m/S 736 mmHg 74%
    19:00 -12°C° 0 mm 6 m/S 737 mmHg 74%
    20:00 -12°C° 0 mm 6 m/S 737 mmHg 74%
    21:00 -13°C° 0 mm 5 m/S 738 mmHg 74%
    22:00 -13°C° 0 mm 5 m/S 738 mmHg 71%
    23:00 -12°C° 0 mm 4 m/S 738 mmHg 68%

    10 Dezember, Dienstag

    Zeit Temperatur Niederschläge Wind Luftdruck Luftfeuchtigkeit
    00:00 -12°C° 0 mm 4 m/S 739 mmHg 65%
    01:00 -12°C° 0 mm 3 m/S 739 mmHg 63%
    02:00 -12°C° 0 mm 3 m/S 739 mmHg 62%
    03:00 -10°C° 0 mm 2 m/S 739 mmHg 60%
    04:00 -12°C° 0 mm 3 m/S 739 mmHg 66%
    05:00 -10°C° 0 mm 3 m/S 739 mmHg 72%
    06:00 -11°C° 0 mm 4 m/S 739 mmHg 78%
    07:00 -12°C° 0.1 mm 5 m/S 740 mmHg 77%
    08:00 -12°C° 0.1 mm 6 m/S 741 mmHg 77%
    09:00 -13°C° 0.1 mm 7 m/S 742 mmHg 76%
    10:00 -13°C° 0 mm 7 m/S 742 mmHg 71%
    11:00 -13°C° 0 mm 7 m/S 743 mmHg 66%
    12:00 -14°C° 0 mm 7 m/S 743 mmHg 62%
    13:00 -14°C° 0 mm 7 m/S 744 mmHg 59%
    14:00 -15°C° 0 mm 7 m/S 744 mmHg 57%
    15:00 -17°C° 0 mm 7 m/S 744 mmHg 55%
    16:00 -17°C° 0 mm 7 m/S 745 mmHg 56%
    17:00 -18°C° 0 mm 7 m/S 745 mmHg 58%
    18:00 -18°C° 0 mm 6 m/S 746 mmHg 59%
    19:00 -20°C° 0 mm 6 m/S 747 mmHg 60%
    20:00 -21°C° 0 mm 6 m/S 747 mmHg 61%
    21:00 -20°C° 0 mm 5 m/S 748 mmHg 62%
    22:00 -21°C° 0 mm 5 m/S 748 mmHg 61%
    23:00 -20°C° 0 mm 4 m/S 748 mmHg 61%

    11 Dezember, Mittwoch

    Zeit Temperatur Niederschläge Wind Luftdruck Luftfeuchtigkeit
    00:00 -20°C° 0 mm 4 m/S 748 mmHg 61%
    01:00 -19°C° 0 mm 3 m/S 748 mmHg 61%
    02:00 -21°C° 0 mm 3 m/S 748 mmHg 61%
    03:00 -19°C° 0 mm 2 m/S 748 mmHg 61%
    04:00 -19°C° 0 mm 2 m/S 748 mmHg 62%
    05:00 -17°C° 0 mm 1 m/S 748 mmHg 63%
    06:00 -17°C° 0 mm 1 m/S 748 mmHg 63%
    07:00 -17°C° 0 mm 1 m/S 748 mmHg 60%
    08:00 -16°C° 0 mm 1 m/S 748 mmHg 58%
    09:00 -16°C° 0 mm 1 m/S 749 mmHg 55%
    10:00 -15°C° 0.1 mm 1 m/S 748 mmHg 64%
    11:00 -14°C° 0.1 mm 1 m/S 748 mmHg 73%
    12:00 -15°C° 0.1 mm 2 m/S 748 mmHg 82%
    13:00 -13°C° 0.1 mm 1 m/S 748 mmHg 82%
    14:00 -12°C° 0.1 mm 1 m/S 747 mmHg 82%
    15:00 -11°C° 0.1 mm 1 m/S 747 mmHg 81%
    16:00 -11°C° 0 mm 1 m/S 748 mmHg 84%
    17:00 -14°C° 0 mm 2 m/S 748 mmHg 87%
    18:00 -14°C° 0 mm 2 m/S 749 mmHg 90%
    19:00 -14°C° 0 mm 2 m/S 749 mmHg 91%
    20:00 -14°C° 0 mm 2 m/S 750 mmHg 92%
    21:00 -15°C° 0 mm 2 m/S 750 mmHg 92%
    22:00 -15°C° 0 mm 2 m/S 750 mmHg 92%
    23:00 -15°C° 0 mm 2 m/S 751 mmHg 92%
    Mehr zeigen